Location: Unspecified
(30.3955°N, 0.0000°E)
Time: 04:21:58
(UTC+00:00)

Lacrosse 4 Rocket - Visible Passes

Search period start: 05 April 2026 00:00
Search period end: 15 April 2026 00:00
Orbit: 509 x 565 km, 68.0° (Epoch: 29 March)

Date Brightness Start Highest point End Pass type
(mag) Time Alt. Az. Time Alt. Az. Time Alt. Az.
5 Apr 1.2 19:37:37 10° NNW 19:41:45 80° ENE 19:43:35 32° SSE visible
6 Apr 1.3 19:28:41 10° NNW 19:32:48 85° WSW 19:35:55 17° SSE visible
7 Apr 1.6 19:19:44 10° NNW 19:23:51 71° WSW 19:27:58 10° SSE visible
8 Apr 1.9 19:10:50 10° NNW 19:14:52 58° WSW 19:18:57 10° S visible
9 Apr 2.4 19:01:55 10° NW 19:05:54 48° WSW 19:09:54 10° S visible
10 Apr 2.8 18:53:01 10° NW 18:56:54 40° WSW 19:00:48 10° S visible
11 Apr 3.2 18:44:09 10° NW 18:47:53 34° WSW 18:51:39 10° S visible
